Regional Weather Roundup
Issued by NWS Charleston, WV

Home | Current Version | Previous Version | Graphics & Text | Print | Product List | Glossary On
Versions: 1 2 3 4 5 6 7 8 9 10 11 12 13 14 15 16 17 18 19 20 21 22 23 24 25 26 27
000
ASUS41 KRLX 200710
RWRRLX
West Virginia Regional Weather Roundup
National Weather Service Charleston WV
300 AM EDT FRI APR 20 2018

Note: "fair" indicates few or no clouds below 12,000 feet with no
significant weather and/or obstructions to visibility.

WVZ003-200800-
Northern Panhandle of West Virginia

CITY           SKY/WX    TMP DP  RH WIND       PRES   REMARKS
WHEELING       FAIR      32  19  58 CALM      30.29S
$$

WVZ009-200800-
Northwest West Virginia

CITY           SKY/WX    TMP DP  RH WIND       PRES   REMARKS
PARKERSBURG    FAIR      38  21  50 N5        30.35R
$$

WVZ006-200800-
Western West Virginia

CITY           SKY/WX    TMP DP  RH WIND       PRES   REMARKS
HUNTINGTON     FAIR      39  30  70 W3        30.31R
$$

WVZ015-200800-
West Central West Virginia

CITY           SKY/WX    TMP DP  RH WIND       PRES   REMARKS
CHARLESTON     FAIR      33  31  92 CALM      30.29R
$$

WVZ022-031-200800-
North Central West Virginia

CITY           SKY/WX    TMP DP  RH WIND       PRES   REMARKS
CLARKSBURG     FAIR      35  20  54 VRB5      30.28R
MORGANTOWN     FAIR      33  22  63 NW5       30.29R
$$

WVZ025-035-042-045-200800-
Southern West Virginia

CITY           SKY/WX    TMP DP  RH WIND       PRES   REMARKS
BECKLEY        FAIR      33  25  72 W7        30.24S
LOGAN          FAIR      37  28  70 CALM      30.28S
BLUEFIELD      FAIR      31  24  75 W7        30.25S
LEWISBURG      FAIR      33  27  77 CALM      30.23R
$$

WVZ047-200800-
Northern Mountains of West Virginia

CITY           SKY/WX    TMP DP  RH WIND       PRES   REMARKS
ELKINS         FAIR      34  21  59 N7        30.24R
$$

WVZ052-200800-
Eastern Panhandle of West Virginia

CITY           SKY/WX    TMP DP  RH WIND       PRES   REMARKS
MARTINSBURG    FAIR      36  23  59 NW9       30.21R
PETERSBURG     FAIR      38  17  42 NW8       30.24R
$$




USA.gov is the U.S. government's official web portal to all federal, state and local government web resources and services.